Tracking 33831 objects as of 16-Apr-2026
HD Live streaming from Space Station
objects crossing your sky now

FENGYUN 1C DEB

Track FENGYUN 1C DEB now!
10-day predictions


NORAD ID: 30477
Int'l Code: 1999-025AGQ
Perigee: 855.1 km
Apogee: 1,497.4 km
Inclination: 99.4 °
Period: 108.8 minutes
Semi major axis: 7547 km
RCS: 0.0105 m2 (small)
Launch date: May 10, 1999
Source: People's Republic of China (PRC)
Launch site: Taiyaun Space Center, China (TSC)

Note: This is SATELLITE DEBRIS
Your satellite tracking list
Your tracking list is empty




NASA's NSSDC Master Catalog

Two Line Element Set (TLE):
1 30477U 99025AGQ 26104.95041868  .00000563  00000-0  87008-3 0  9990
2 30477  99.4167 181.5544 0425522 341.6684 201.8267 13.24107292923493
Source of the keplerian elements: AFSPC